GSAT0214 (GALILEO 18)

Last updated on Mon Sep 21 2026 00:02:49 GMT+0000 (Coordinated Universal Time)

1 41862U 16069D 26263.13926051 .00000028 00000+0 00000+0 0 9997 2 41862 55.5560 98.4527 0001688 2.9500 357.1272 1.70474227 61269
UTC large
Height (km)
Speed (km/s)
/
Latitude / Longitude
Inclination (degrees)
Orbital Period (minutes)
Azimuth
Elevation
Range (km)
Doppler Factor

Next 0 passes for location: London (51.5072 / 0.1276)

No passes found over London.
GSAT0214 (GALILEO 18)